Regional Weather Roundup
Issued by NWS New Orleans/Baton Rouge, LA

Home | Current Version | Previous Version | Graphics & Text | Print | Product List | Glossary On
Versions: 1 2 3 4 5 6 7 8 9 10 11 12 13 14 15 16 17 18 19 20 21 22 23 24 25 26 27 28 29 30 31 32 33 34 35 36 37 38 39 40 41 42 43 44 45 46 47 48 49 50
982
ASUS44 KLIX 010001
RWRLIX
NEW ORLEANS REGIONAL WEATHER ROUNDUP
NATIONAL WEATHER SERVICE NEW ORLEANS LA
700 PM CDT THU JUL 31 2014

NOTE: "FAIR" INDICATES FEW OR NO CLOUDS BELOW 12,000 FEET WITH NO
      SIGNIFICANT WEATHER AND/OR OBSTRUCTIONS TO VISIBILITY.
      SKY/WX - SKY CONDITION AND SIGNIFICANT WEATHER.
      TMP - AIR TEMPERATURE.     DP    - DEWPOINT TEMPERATURE.
      RH  - RELATIVE HUMIDITY.   PRES  - PRESSURE.
      HI  - HEAT INDEX.          WCI   - WIND CHILL INDEX.

*  THESE STATIONS ARE NOT NWS OR FAA STATIONS AND ARE NOT UNDER
   NWS QUALITY CONTROL.

LAZ038-040-048-061>063-065>067-069-010100-
SOUTHEAST LOUISIANA

CITY           SKY/WX    TMP DP  RH WIND       PRES   REMARKS
N.O. AUDUBON     N/A     88  64  45 MISG        N/A
6HR MIN TEMP:  87; 6HR MAX TEMP:  94;

N.O. INTL ARPT PTSUNNY   83  61  47 N7        29.99S
6HR MIN TEMP:  83; 6HR MAX TEMP:  91;

N.O. LAKEFRONT PTSUNNY   87  59  38 CALM      29.99S
6HR MIN TEMP:  85; 6HR MAX TEMP:  89;

N.O. DOWNTOWN*   N/A     88  61  40 NE6       30.00S
6HR MIN TEMP:  88; 6HR MAX TEMP:  91;

SLIDELL        PTSUNNY   83  66  56 CALM      29.99R
6HR MIN TEMP:  83; 6HR MAX TEMP:  88;

BATON ROUGE    PTSUNNY   82  68  62 NE7       29.98S
6HR MIN TEMP:  82; 6HR MAX TEMP:  90;

BOOTHVILLE     MOCLDY    84  65  52 NE3       30.00S
6HR MIN TEMP:  83; 6HR MAX TEMP:  86;

BELLE CHASSE   PTSUNNY   84  68  58 E3        29.99S
6HR MIN TEMP:  84; 6HR MAX TEMP:  88;

BOGALUSA*        N/A     82  67  62 NE6       30.02S
6HR MIN TEMP:  82; 6HR MAX TEMP:  87;

GALLIANO*      NOT AVBL
NEW ROADS*       N/A     82  69  64 NE5       29.99S
6HR MIN TEMP:  82; 6HR MAX TEMP:  87;

GONZALES*      NOT AVBL
HAMMOND*       NOT AVBL
HOUMA*         MOSUNNY   84  66  54 SE7       29.99
PORT FOURCHON* CLEAR     84  68  58 E7        30.01S

$$

MSZ070-080>082-010100-
SOUTHERN MISSISSIPPI

CITY           SKY/WX    TMP DP  RH WIND       PRES   REMARKS
MCCOMB         CLOUDY    78  65  63 NE5       30.02S
6HR MIN TEMP:  78; 6HR MAX TEMP:  86;

GULFPORT       MOCLDY    85  64  49 SW3       29.99R
6HR MIN TEMP:  85; 6HR MAX TEMP:  93;

BILOXI         MOCLDY    82  65  55 SW6       30.00R
6HR MIN TEMP:  82; 6HR MAX TEMP:  89;

PASCAGOULA     PTCLDY    81  66  60 SW5       30.00R
6HR MIN TEMP:  81; 6HR MAX TEMP:  89;

STENNIS ARPT*  CLEAR    N/A N/A N/A CALM      30.00R

$$

COASTAL OBSERVATIONS
LAKE AND NEARSHORE STATIONS

STATION/POSITION TIME  TEMP    WIND        PRES    WAVE
                       AIR SEA DIR/SP/G            HT/PER
                 (UTC) (F)     (DEG/KT/KT) (MB)    (FT/S)
PASCAGOULA       2300   83     220/  7/  9 1015.1
WAVELAND YACHT   2300   83     220/  3/  4 1015.2
GRAND ISLE       2300   84 88  120/  4/  6 1016.3
SOUTHWEST PASS   2300   87 86   70/  2/  4 1016.0
NEW CANAL        2300   85 84   30/  4/  5 1016.1
SHELL BEACH      2300   82 82  180/  6/  8 1015.6

OFFSHORE STATIONS

STATION/POSITION TIME  TEMP    WIND        PRES    WAVE
                       AIR SEA DIR/SP/G            HT/PER
                 (UTC) (F)     (DEG/KT/KT) (MB)    (FT/S)

$$




USA.gov is the U.S. government's official web portal to all federal, state and local government web resources and services.